DLH490 EDDF-KSEA

Flight info

Callsign DLH490
Flight time N/A
Altitude 24000
Route MARUN3W MARUN Y152 ARPEG/N0458F360 Z850 ABILU DCT ATPAQ DCT OMIMA DCT KARLI DCT ISVIG/M079F360 DCT 67N010W 70N020W/M079F380 73N040W 74N060W DCT DAPAK/N0459F380 DCT 73N080W 7130N09000W 6830N10000W/N0466F400 66N105W 62N110W DCT YSM DCT 55N116W DCT LONRO DCT YDC DCT JAKSN GLASR3
Aircraft A343/H-SDE2E3FGHIJ4J5M1RWXY/LB1D1

Departure

Time 2026-04-18 07:35
Airport Frankfurt Main Airport (EDDF)

Arrival

Time N/A
Airport Seattle–Tacoma International Airport (KSEA)
Time Latitude Longitude Altitude Speed Heading
2026-04-18 06:36 50.04671 8.56046 368 ft 0 kts 340°
2026-04-18 07:21 50.04649 8.56059 367 ft 4 kts 340°
2026-04-18 07:21 50.04624 8.56073 367 ft 4 kts 338°
2026-04-18 07:21 50.04602 8.56094 366 ft 4 kts 303°
2026-04-18 07:21 50.04596 8.56131 361 ft 4 kts 259°
2026-04-18 07:22 50.04599 8.56151 362 ft 0 kts 251°
2026-04-18 07:22 50.04592 8.56121 363 ft 4 kts 249°
2026-04-18 07:22 50.04582 8.56081 364 ft 4 kts 249°
2026-04-18 07:22 50.04576 8.56058 364 ft 2 kts 250°
2026-04-18 07:23 50.04576 8.56056 364 ft 0 kts 250°
2026-04-18 07:27 50.04576 8.56054 360 ft 1 kts 250°
2026-04-18 07:27 50.04562 8.55997 364 ft 8 kts 249°
2026-04-18 07:27 50.04525 8.55958 367 ft 9 kts 202°
2026-04-18 07:28 50.04468 8.55929 365 ft 9 kts 198°
2026-04-18 07:28 50.04401 8.55910 366 ft 12 kts 179°
2026-04-18 07:28 50.04317 8.55945 362 ft 11 kts 160°
2026-04-18 07:28 50.04244 8.55937 361 ft 12 kts 204°
2026-04-18 07:29 50.04162 8.55933 364 ft 13 kts 163°
2026-04-18 07:29 50.04089 8.55989 365 ft 10 kts 134°
2026-04-18 07:29 50.04085 8.56094 362 ft 11 kts 75°
2026-04-18 07:29 50.04116 8.56231 365 ft 14 kts 70°
2026-04-18 07:30 50.04151 8.56379 361 ft 17 kts 69°
2026-04-18 07:30 50.04193 8.56554 365 ft 17 kts 69°
2026-04-18 07:30 50.04232 8.56719 365 ft 16 kts 70°
2026-04-18 07:30 50.04269 8.56875 371 ft 17 kts 69°
2026-04-18 07:31 50.04319 8.57082 371 ft 21 kts 69°
2026-04-18 07:31 50.04369 8.57290 372 ft 20 kts 69°
2026-04-18 07:31 50.04418 8.57494 370 ft 20 kts 70°
2026-04-18 07:31 50.04466 8.57697 372 ft 21 kts 69°
2026-04-18 07:32 50.04516 8.57904 372 ft 20 kts 69°
2026-04-18 07:32 50.04564 8.58108 372 ft 20 kts 70°
2026-04-18 07:32 50.04608 8.58292 375 ft 16 kts 69°
2026-04-18 07:32 50.04645 8.58445 377 ft 11 kts 70°
2026-04-18 07:33 50.04638 8.58549 376 ft 10 kts 136°
2026-04-18 07:33 50.04595 8.58589 377 ft 6 kts 155°
2026-04-18 07:33 50.04558 8.58612 375 ft 6 kts 161°
2026-04-18 07:33 50.04502 8.58604 380 ft 9 kts 212°
2026-04-18 07:34 50.04475 8.58539 377 ft 0 kts 248°
2026-04-18 07:34 50.04459 8.58474 377 ft 21 kts 249°
2026-04-18 07:34 50.04345 8.57994 372 ft 73 kts 250°
2026-04-18 07:34 50.04112 8.57019 371 ft 117 kts 249°
2026-04-18 07:35 50.03782 8.55641 358 ft 153 kts 250°
2026-04-18 07:35 50.03401 8.53974 623 ft 161 kts 252°
2026-04-18 07:35 50.03038 8.52380 1120 ft 157 kts 251°
2026-04-18 07:35 50.02616 8.50761 1436 ft 168 kts 242°
2026-04-18 07:36 50.01814 8.49297 1694 ft 187 kts 219°
2026-04-18 07:36 50.00644 8.48319 2126 ft 196 kts 198°
2026-04-18 07:36 49.99309 8.47829 2690 ft 199 kts 190°
2026-04-18 07:36 49.97931 8.47499 3281 ft 201 kts 188°
2026-04-18 07:37 49.96540 8.47181 3870 ft 203 kts 190°
2026-04-18 07:37 49.95157 8.46660 4380 ft 210 kts 196°
2026-04-18 07:37 49.93693 8.45997 4740 ft 230 kts 197°
2026-04-18 07:37 49.92197 8.44989 5386 ft 236 kts 214°
2026-04-18 07:38 49.91068 8.43145 6102 ft 240 kts 240°
2026-04-18 07:38 49.90613 8.40655 6813 ft 245 kts 268°
2026-04-18 07:38 49.90977 8.38074 7485 ft 251 kts 296°
2026-04-18 07:38 49.92118 8.36024 8162 ft 256 kts 325°
2026-04-18 07:39 49.93722 8.34757 8794 ft 264 kts 336°
2026-04-18 07:39 49.95467 8.33659 9241 ft 276 kts 337°
2026-04-18 07:39 49.97271 8.32536 9864 ft 282 kts 336°
2026-04-18 07:39 49.99099 8.31376 10443 ft 288 kts 336°
2026-04-18 07:40 50.00972 8.30171 10744 ft 302 kts 336°
2026-04-18 07:40 50.02961 8.28882 11027 ft 317 kts 336°
2026-04-18 07:40 50.05093 8.27743 11330 ft 332 kts 344°
2026-04-18 07:40 50.07400 8.26958 11639 ft 346 kts 348°
2026-04-18 07:41 50.09800 8.26347 12108 ft 353 kts 349°
2026-04-18 07:41 50.12249 8.25819 12681 ft 357 kts 350°
2026-04-18 07:41 50.14725 8.25310 13236 ft 361 kts 350°
2026-04-18 07:41 50.17224 8.24788 13843 ft 364 kts 349°
2026-04-18 07:42 50.19737 8.24242 14415 ft 366 kts 349°
2026-04-18 07:42 50.22274 8.23672 14943 ft 369 kts 349°
2026-04-18 07:42 50.24826 8.23087 15481 ft 373 kts 348°
2026-04-18 07:42 50.27404 8.22488 16002 ft 376 kts 348°
2026-04-18 07:43 50.30000 8.21882 16530 ft 379 kts 348°
2026-04-18 07:43 50.32618 8.21270 17065 ft 382 kts 348°
2026-04-18 07:43 50.35255 8.20654 17606 ft 385 kts 348°
2026-04-18 07:43 50.37920 8.20030 18105 ft 389 kts 348°
2026-04-18 07:44 50.40611 8.19400 18599 ft 393 kts 348°
2026-04-18 07:44 50.43323 8.18767 19061 ft 396 kts 348°
2026-04-18 07:44 50.46053 8.18128 19507 ft 398 kts 348°
2026-04-18 07:44 50.48769 8.17491 19976 ft 401 kts 348°
2026-04-18 07:45 50.51534 8.16841 20431 ft 403 kts 348°
2026-04-18 07:45 50.54355 8.16178 20881 ft 406 kts 348°
2026-04-18 07:45 50.57126 8.15527 21307 ft 409 kts 348°
2026-04-18 07:45 50.59947 8.14864 21757 ft 411 kts 348°
2026-04-18 07:46 50.62830 8.14185 22181 ft 415 kts 348°
2026-04-18 07:46 50.65651 8.13519 22603 ft 417 kts 348°
2026-04-18 07:46 50.68535 8.12836 23014 ft 420 kts 348°
2026-04-18 07:46 50.71427 8.12151 23436 ft 422 kts 348°
2026-04-18 07:47 50.74339 8.11461 23817 ft 424 kts 348°
2026-04-18 07:47 50.77269 8.10766 24137 ft 427 kts 348°
2026-04-18 07:47 50.80216 8.10067 24463 ft 429 kts 348°
2026-04-18 07:47 50.83178 8.09363 24792 ft 431 kts 348°
2026-04-18 07:48 50.86153 8.08653 25102 ft 433 kts 348°
2026-04-18 07:48 50.89145 8.07939 25428 ft 435 kts 348°
2026-04-18 07:48 50.92145 8.07222 25745 ft 437 kts 348°
2026-04-18 07:48 50.95164 8.06500 26061 ft 440 kts 348°
2026-04-18 07:49 50.98197 8.05774 26361 ft 442 kts 348°
2026-04-18 07:49 51.01239 8.05046 26672 ft 443 kts 348°
2026-04-18 07:49 51.04301 8.04310 26903 ft 447 kts 348°
2026-04-18 07:49 51.07382 8.03567 27167 ft 450 kts 347°
2026-04-18 07:50 51.10487 8.02819 27438 ft 452 kts 347°
2026-04-18 07:50 51.13606 8.02065 27724 ft 454 kts 347°
2026-04-18 07:50 51.16732 8.01310 28005 ft 456 kts 347°
2026-04-18 07:50 51.19876 8.00551 28288 ft 458 kts 347°
2026-04-18 07:51 51.20940 8.00294 28385 ft 458 kts 347°